TimeHST,TemperatureF,Dew PointF,Humidity,Sea Level PressureIn,VisibilityMPH,Wind Direction,Wind SpeedMPH,Gust SpeedMPH,PrecipitationIn,Events,Conditions,WindDirDegrees,DateUTC
12:53 AM,75.0,70.0,84,29.98,10.0,NNW,4.6,-,N/A,,Partly Cloudy,330,2011-11-01 10:53:00
1:53 AM,75.0,69.1,82,29.97,10.0,Calm,Calm,-,N/A,,Scattered Clouds,0,2011-11-01 11:53:00
2:53 AM,73.9,70.0,87,29.95,10.0,NW,3.5,-,0.00,,Scattered Clouds,320,2011-11-01 12:53:00
3:53 AM,73.0,70.0,90,29.95,10.0,Calm,Calm,-,N/A,,Partly Cloudy,0,2011-11-01 13:53:00
4:53 AM,73.9,70.0,87,29.95,8.0,Calm,Calm,-,0.00,Rain,Light Rain,0,2011-11-01 14:53:00
5:53 AM,73.0,71.1,93,29.96,10.0,North,3.5,-,0.00,,Mostly Cloudy,360,2011-11-01 15:53:00
6:53 AM,72.0,70.0,93,29.99,10.0,North,5.8,-,0.06,Rain,Light Rain,10,2011-11-01 16:53:00
7:53 AM,73.0,71.1,93,30.00,10.0,Variable,4.6,-,0.00,,Mostly Cloudy,0,2011-11-01 17:53:00
8:53 AM,79.0,71.1,77,30.01,10.0,NNW,3.5,-,0.00,,Scattered Clouds,340,2011-11-01 18:53:00
9:53 AM,80.1,71.1,74,30.01,10.0,South,4.6,-,N/A,,Scattered Clouds,170,2011-11-01 19:53:00
10:33 AM,78.8,71.6,78,30.03,1.5,NNE,8.1,-,0.01,Rain,Rain,30,2011-11-01 20:33:00
10:51 AM,73.4,71.6,94,30.02,7.0,NNW,9.2,-,0.63,Rain,Light Rain,340,2011-11-01 20:51:00
10:52 AM,73.9,72.0,93,30.02,7.0,NNW,8.1,-,0.63,Rain,Light Rain,340,2011-11-01 20:52:00
11:53 AM,81.0,73.9,79,30.00,10.0,North,8.1,-,0.01,,Mostly Cloudy,360,2011-11-01 21:53:00
12:53 PM,80.1,73.0,79,29.97,10.0,Calm,Calm,-,0.00,,Scattered Clouds,0,2011-11-01 22:53:00
1:53 PM,82.9,70.0,65,29.94,10.0,East,9.2,-,0.00,,Scattered Clouds,80,2011-11-01 23:53:00
2:15 PM,82.4,71.6,70,29.95,6.0,East,23.0,27.6,0.00,Rain,Light Rain,90,2011-11-02 00:15:00
2:21 PM,78.8,73.4,83,29.95,7.0,East,9.2,27.6,0.02,Rain,Rain,90,2011-11-02 00:21:00
2:53 PM,81.0,72.0,74,29.94,10.0,East,8.1,-,0.03,,Scattered Clouds,80,2011-11-02 00:53:00
3:53 PM,81.0,69.1,67,29.95,10.0,ENE,13.8,23.0,N/A,,Mostly Cloudy,70,2011-11-02 01:53:00
4:53 PM,81.0,69.1,67,29.96,10.0,ENE,11.5,-,N/A,,Mostly Cloudy,60,2011-11-02 02:53:00
5:53 PM,79.0,69.1,72,29.98,10.0,ENE,10.4,-,N/A,,Scattered Clouds,60,2011-11-02 03:53:00
6:53 PM,77.0,70.0,79,30.00,10.0,East,8.1,-,N/A,,Scattered Clouds,80,2011-11-02 04:53:00
7:53 PM,77.0,69.1,76,30.01,10.0,NE,4.6,-,N/A,,Scattered Clouds,50,2011-11-02 05:53:00
8:53 PM,77.0,69.1,76,30.03,10.0,ENE,15.0,-,N/A,,Scattered Clouds,70,2011-11-02 06:53:00
9:53 PM,77.0,69.1,76,30.04,10.0,NE,10.4,-,N/A,,Scattered Clouds,50,2011-11-02 07:53:00
10:53 PM,77.0,69.1,76,30.03,10.0,ENE,11.5,-,N/A,,Scattered Clouds,60,2011-11-02 08:53:00
11:53 PM,77.0,69.1,76,30.02,10.0,NE,11.5,20.7,0.00,,Mostly Cloudy,50,2011-11-02 09:53:00